Regional Weather Roundup
Issued by NWS

Home | Current Version | Previous Version | Graphics & Text | Print | Product List | Glossary Off
Versions: 1 2 3 4 5 6 7 8 9 10 11 12 13 14 15 16 17 18 19 20 21 22 23 24 25 26 27 28 29 30 31 32 33 34 35 36 37 38 39 40 41 42 43 44 45 46 47 48 49 50

000
ASUS43 KMKX 071200
RWRWI

WISCONSIN REGIONAL WEATHER ROUNDUP
NATIONAL WEATHER SERVICE MILWAUKEE/SULLIVAN WI
700 AM CDT TUE JUL 07 2015

NOTE: "FAIR" INDICATES FEW OR NO CLOUDS BELOW 12,000 FEET WITH NO
SIGNIFICANT WEATHER AND/OR OBSTRUCTIONS TO VISIBILITY.

WIZ001-002-006>008-014>016-023>028-071300-
NORTHWEST WISCONSIN

CITY           SKY/WX    TMP DP  RH WIND       PRES   REMARKS
SUPERIOR ARPT  CLOUDY    55  46  72 N8        30.12R
ASHLAND        CLOUDY    54  49  83 NW6       30.10R
6HR MIN TEMP:  50; 6HR MAX TEMP:  55;

HAYWARD        CLOUDY    54  45  71 N6        30.10R
6HR MIN TEMP:  47; 6HR MAX TEMP:  54;

SIREN          CLOUDY    53  45  72 CALM      30.12S
CUMBERLAND     CLOUDY    52  45  76 N6        30.11R
RICE LAKE      CLOUDY    52  47  83 CALM      30.12R
CHETEK         CLOUDY    52  47  82 N7        30.10S
LADYSMITH      MOSUNNY   50  46  88 NW5       30.10R
EAU CLAIRE     MOSUNNY   52  45  77 N6        30.09R
6HR MIN TEMP:  49; 6HR MAX TEMP:  59;

MENOMONIE      SUNNY     54  48  80 NW7       30.10R
NEW RICHMOND   CLOUDY    51  49  92 N6        30.13R
OSCEOLA        CLOUDY    52  51  97 N6        30.16R
$$

WIZ003>005-009-010-017-018-071300-
NORTH CENTRAL WISCONSIN

CITY           SKY/WX    TMP DP  RH WIND       PRES   REMARKS
MANITOWISH WTR CLOUDY    50  48  92 N8        30.06R
ARBOR VITAE    CLOUDY    52  48  88 N8        30.05R
WOODRUFF       CLOUDY    52  48  88 N8        30.05R
RHINELANDER    MOSUNNY   51  46  83 N5        30.05R
6HR MIN TEMP:  49; 6HR MAX TEMP:  57;

EAGLE RIVER    CLOUDY    50  46  87 N8        30.03S
LAND O LAKES   CLOUDY    50  46  84 N9        30.05R
PHILLIPS       PTSUNNY   46  46  98 NW5       30.06R
TOMAHAWK       SUNNY     48  46  93 NW3       30.05R
MEDFORD        SUNNY     49  47  93 N7        30.05S
MERRILL        SUNNY     50  48  93 N5        30.05R
$$

WIZ029-030-035-036-043>047-071300-
CENTRAL WISCONSIN

CITY           SKY/WX    TMP DP  RH WIND       PRES   REMARKS
WAUSAU         SUNNY     54  48  80 VRB6      30.03R
6HR MIN TEMP:  52; 6HR MAX TEMP:  57;

MOSINEE        SUNNY     52  50  93 N9        30.05R
MARSHFIELD     SUNNY     54  46  74 N9        30.05R
6HR MIN TEMP:  52; 6HR MAX TEMP:  57;

STEVENS POINT  SUNNY     51  49  92 N6        30.03R
WAUPACA        CLOUDY    59  57  96 N3        30.00R FOG
WAUTOMA        CLOUDY    57  57 100 N6        30.01R FOG
WISC RAPIDS    SUNNY     55  48  77 N10       30.05R
6HR MIN TEMP:  54; 6HR MAX TEMP:  59;

CAMP DOUGLAS   NOT AVBL
$$

WIZ011>013-019>022-031-037>040-048>050-071300-
NORTHEAST WISCONSIN

CITY           SKY/WX    TMP DP  RH WIND       PRES   REMARKS
ANTIGO         SUNNY     50  47  90 N8        30.02S
SHAWANO        CLOUDY    59  51  75 N10       30.00R
OCONTO         CLOUDY    56  49  78 N6        29.99R
STURGEON BAY   PTSUNNY   55  46  71 N15G22    30.00R
6HR MIN TEMP:  55; 6HR MAX TEMP:  61;

GREEN BAY      CLOUDY    58  47  66 N12       30.00R
6HR MIN TEMP:  58; 6HR MAX TEMP:  62;

MANITOWOC      NOT AVBL
APPLETON       PTSUNNY   57  46  67 N7        30.00R
CLINTONVILLE   CLOUDY    57  50  77 NE6       30.00R
OSHKOSH        PTSUNNY   60  49  66 N14       29.99R
6HR MIN TEMP:  59; 6HR MAX TEMP:  62; 6HR PCP:  0.03;

$$

WIZ032>034-041-042-053>061-071300-
SOUTHWEST WISCONSIN

CITY           SKY/WX    TMP DP  RH WIND       PRES   REMARKS
LA CROSSE      SUNNY     58  50  75 N10       30.06R
6HR MIN TEMP:  57; 6HR MAX TEMP:  61;

SPARTA         SUNNY     55  51  87 N7        30.06R
VIROQUA        CLOUDY    56  55  95 N12       30.05R
BOSCOBEL       MOSUNNY   59  55  87 VRB3      30.03R FOG
6HR MIN TEMP:  57; 6HR MAX TEMP:  63;

PRAIRIE DU CHI CLOUDY    60  56  85 N5        30.03R FOG
PLATTEVILLE    CLOUDY    58  56  94 N10       30.01R
$$

WIZ056-057-062-063-064-067-068-071300-
SOUTH CENTRAL WISCONSIN

CITY           SKY/WX    TMP DP  RH WIND       PRES   REMARKS
REEDSBURG      CLOUDY    57  55  92 NW7       30.02R FOG
BARABOO/DELLS  CLOUDY    56  53  88 N5        30.02R FOG
LONE ROCK      PTSUNNY   59  54  83 N10       30.02R HAZE
MINERAL POINT  MOSUNNY   59  55  88 N10       30.01R FOG
MADISON        CLOUDY    59  56  89 N10       29.99R SMOKE
6HR MIN TEMP:  59; 6HR MAX TEMP:  62;

MIDDLETON      PTSUNNY   60  58  91 N8        30.00R
WATERTOWN      CLOUDY    60  60 100 N6        29.97R FOG
MONROE         CLOUDY    59  57  94 N7        29.98R FOG
JANESVILLE     CLOUDY    63  59  88 N14       29.96R FOG
$$

WIZ051-052-058>065-066-070>072-071300-
SOUTHEAST WISCONSIN

CITY           SKY/WX    TMP DP  RH WIND       PRES   REMARKS
MILWAUKEE      CLOUDY    58  53  84 N13G18    29.96R
6HR MIN TEMP:  57; 6HR MAX TEMP:  72; 6HR PCP:  0.05;

WAUKESHA       DRIZZLE   55  54  94 N9G16     29.98R FOG
MILWAUKEE/TIMM CLOUDY    57  54  88 N6        29.97R FOG
RACINE         CLOUDY    57  51  80 N17G28    29.97R
6HR MIN TEMP:  57; 6HR MAX TEMP:  72; 6HR PCP:  0.08;

BURLINGTON     RAIN      58  57  95 NE8       29.96R
KENOSHA        CLOUDY    58  52  80 N16G23    29.96R
6HR MIN TEMP:  58; 6HR MAX TEMP:  73; 6HR PCP:  0.22;

FOND DU LAC    CLOUDY    61  55  81 NE10      29.99R
6HR MIN TEMP:  60; 6HR MAX TEMP:  62; 6HR PCP:  0.06;

SHEBOYGAN      CLOUDY    58  52  80 N9        29.97R
6HR MIN TEMP:  58; 6HR MAX TEMP:  59; 6HR PCP:  0.34;

WEST BEND      CLOUDY    55  54  94 N8        29.97R
JUNEAU         MOSUNNY   59  56  92 NW5       29.98R FOG
$$

LSZ147-162-071300-
LAKE SUPERIOR

STATION/POSITION TIME  TEMP    WIND        PRES    WAVE
                       AIR SEA DIR/SP/G            HT/PER
                 (UTC) (F)     (DEG/KT/KT) (MB)    (FT/S)
W MID LAKE BUOY  1050   46 39  330/ 10/ 10 1018.0R   1
DEVILS ISLAND    1100   56     320/ 13/ 14 1019.0R
PORT WING        1140   56     330/ 11/ 13 1019.6R
SAXON HARBOR     1140   58     350/ 15/ 19 1018.3R
$$

LMZ867-665-643>646-071300-
LAKE MICHIGAN

STATION/POSITION TIME  TEMP    WIND        PRES    WAVE
                       AIR SEA DIR/SP/G            HT/PER
                 (UTC) (F)     (DEG/KT/KT) (MB)    (FT/S)
CHAMBERS ISLAND  1100   57     320/ 14/ 18 1014.6R
N MID LAKE BUOY  1050   53 52  320/ 14/ 16 1013.0R   3/ 4
NORTHPORT PIER   1100   57     340/ 19/ 24 1014.2R
SISTER BAY       1044   56      20/ 21/ 25   N/A
ALGOMA LAKESHORE 1141          330/ 12/ 16   N/A
KEWAUNEE LAKESHO 1100   58     360/  8/ 16 1013.6R
SHEBOYGAN LAKESH 1100   56     350/  8/  9 1014.3R
PORT WASHINGTON  1100   59      10/  4/ 12 1014.9R
ATWATER BUOY     1100   58 58   30/ 17/ 21 1015.2R
MILWAUKEE LAKESH 1100   58      10/ 13/ 16   N/A
KENOSHA   LAKESH 1100   58      10/ 23/ 29 1013.2R
$$

TC  - TEMPERATURE IN CELSIUS
VSB - VISIBILITY IN STATUTE MILES
WCI - WIND CHILL INDEX
HX  - HEAT INDEX



USA.gov is the U.S. government's official web portal to all federal, state and local government web resources and services.